Lid_Strength_Index
13 16 17 14 14 15 17 17 18 15 13 15 15 14 13 11 11 13 12 11 10 9 8 8 9 10 10 11 11 11 12 11 11 12 14 14 13 14 14 13 14 14 15 15
15 17 14 14 15 15 15 16 17 14 13 15 15 15 13 13 12 11 11 11 10 10 9 9 11 11 11 11 11 11 11 11 11 12 12 13 13 14 13 14 14 14 15 15
14 14 13 14 16 16 16 17 16 16 15 16 17 16 15 14 13 11 11 10 10 10 10 9 11 12 12 11 11 11 11 12 11 11 12 16 16 17 17 16 15 15 15 16
15 13 14 15 16 15 16 14 15 15 18 19 17 20 17 15 14 14 12 11 11 11 10 10 11 13 13 11 11 11 12 12 12 12 13 13 14 14 15 14 15 15 15 16
16 16 16 16 14 14 15 15 16 17 19 19 19 20 18 16 16 14 12 12 11 10 11 10 11 12 12 12 12 12 12 13 12 13 13 13 13 13 15 15 16 16 16 16
15 15 14 14 15 14 15 16 17 18 19 21 18 18 19 18 15 15 13 12 11 11 11 12 13 13 13 14 14 14 14 14 13 13 13 13 14 16 17 16 16 16 16 16
18 16 15 14 16 16 15 18 21 22 23 21 18 19 16 15 14 13 12 12 13 13 13 13 13 13 14 15 15 15 15 14 14 14 14 14 14 15 15 16 15 16 16 17
19 18 16 15 15 16 17 17 20 25 23 19 19 19 15 14 13 13 14 14 13 13 13 13 13 13 14 15 16 15 15 15 15 15 14 14 14 14 14 15 15 15 15 16
19 18 16 15 15 14 18 18 16 19 25 24 18 16 13 15 15 15 14 15 14 14 14 14 13 14 14 15 15 15 15 15 15 15 14 14 14 14 14 15 15 15 15 16
15 18 15 17 15 16 16 15 19 19 22 25 19 18 17 14 12 11 14 14 14 14 13 13 13 13 14 15 15 15 15 14 15 15 14 14 14 14 15 16 16 16 16 16
12 14 15 14 16 16 17 17 17 16 17 19 20 17 12 12 14 15 14 14 14 12 12 12 11 12 13 14 15 15 15 15 14 14 14 15 15 15 15 16 16 16 17 17
11 12 16 15 14 14 14 14 14 17 18 16 15 15 10 10 10 11 10 10 12 12 12 12 12 11 11 13 14 14 15 14 14 14 15 15 15 16 15 16 16 16 17 17
10 14 17 16 14 14 13 12 11 11 13 16 18 16 9 10 10 9 10 12 11 11 11 11 12 11 11 11 12 14 14 14 14 15 15 15 15 16 16 15 16 17 17 18
8 12 15 18 14 13 14 13 12 13 16 16 15 14 10 9 9 8 8 8 8 11 11 12 12 12 12 12 12 13 13 14 15 15 15 15 16 16 15 15 16 17 16 17
10 15 14 13 12 13 13 14 13 14 13 16 14 14 11 9 9 10 11 11 13 13 13 13 14 13 13 13 13 13 13 14 14 14 15 15 15 16 16 16 16 16 16 17
11 16 14 15 13 13 14 13 13 13 13 13 13 13 13 14 15 16 15 15 15 15 15 15 15 14 14 13 13 13 12 13 15 15 15 14 15 16 16 16 16 17 17 17
13 13 15 17 13 14 19 16 14 12 11 13 15 16 15 17 17 16 16 15 15 15 14 14 14 14 13 13 13 14 13 14 14 15 15 16 16 16 16 16 17 17 18 18
14 15 16 18 18 24 16 13 14 14 15 15 15 16 15 16 15 15 13 15 15 14 13 13 13 13 13 12 12 13 14 14 15 16 15 18 17 16 17 18 18 18 18 19
12 14 22 23 23 16 14 16 17 18 17 14 16 15 15 15 15 15 14 13 14 13 13 13 12 13 13 12 12 13 14 14 15 16 16 17 18 17 19 18 19 18 18 18
13 12 15 17 21 23 16 15 12 13 18 13 13 14 14 14 19 17 13 13 14 13 13 13 13 13 13 12 12 13 13 14 14 14 15 17 18 19 18 17 18 18 18 18
24 25 24 24 19 18 14 13 13 20 20 12 12 12 13 15 15 14 13 13 13 13 14 13 14 14 14 13 13 13 13 14 14 16 18 18 18 17 18 19 19 18 18 18
20 24 26 27 29 24 13 14 16 14 11 11 11 13 14 13 13 14 15 15 15 15 15 14 15 16 15 14 14 14 14 13 14 17 18 17 17 20 19 19 19 19 19 20
20 17 20 19 20 12 11 12 10 9 10 11 12 12 12 13 14 14 14 15 15 15 15 15 15 16 16 16 16 16 16 15 13 14 17 17 17 17 18 18 18 19 19 20
14 12 15 16 13 12 11 10 9 8 10 10 11 12 12 13 13 13 14 15 15 15 15 15 16 18 19 18 17 17 17 17 15 14 15 16 17 17 18 17 18 19 19 19
14 14 15 14 13 11 10 10 9 9 10 10 11 11 12 13 14 14 15 15 15 15 15 16 17 18 20 20 20 19 18 18 19 18 15 15 18 18 18 18 19 18 18 18
11 13 14 14 10 9 9 8 9 10 10 11 12 12 11 12 14 14 15 14 15 16 16 18 18 19 20 21 23 22 20 20 20 21 19 16 16 17 18 19 19 16 16 16